GW7035 Weather Reports


Display with metric or nautical units.
time (UTC)temp
F
wind
direction
speed
MPH
gust
MPH
rain 1hr
in
rain 24hr
in
rain mn
in
humidity
%
barometer
mb
20260502194001 41 113 3.0 0.0 0.14 0.00 0.20 99 1012.2
20260502193501 41 203 0.0 0.0 0.12 0.00 0.18 99 1012.2
20260502192501 41 248 2.0 0.0 0.09 0.00 0.15 98 1011.9
20260502192002 41 225 5.0 0.0 0.06 0.00 0.12 98 1012.2
20260502191002 43 270 6.0 0.0 0.00 0.00 0.06 94 1011.9
20260502190502 45 270 9.0 0.0 0.00 0.00 0.06 87 1011.5
20260502190001 48 270 4.0 0.0 0.00 0.00 0.06 76 1011.5
20260502185501 51 225 3.0 0.0 0.00 0.00 0.06 66 1011.2
20260502185002 52 158 3.0 0.0 0.00 0.00 0.06 64 1011.2
20260502184502 53 270 3.0 0.0 0.00 0.00 0.06 60 1011.2
20260502184002 54 293 2.0 0.0 0.00 0.00 0.06 61 1011.2
20260502183502 53 270 0.0 0.0 0.00 0.00 0.06 63 1011.2
20260502183002 53 180 1.0 0.0 0.00 0.00 0.06 63 1011.2
20260502182502 55 135 0.0 0.0 0.00 0.00 0.06 59 1011.2
20260502182002 56 113 1.0 0.0 0.00 0.00 0.06 56 1011.2
20260502181502 56 113 5.0 0.0 0.00 0.00 0.06 59 1011.2
20260502181002 55 90 1.0 0.0 0.00 0.00 0.06 60 1011.5
20260502180502 54 315 2.0 0.0 0.00 0.00 0.06 61 1011.2
20260502170501 52 90 3.0 0.0 0.00 0.00 0.06 69 1011.9
20260502164001 51 315 0.0 0.0 0.00 0.00 0.06 69 1011.9
20260502162502 52 135 1.0 0.0 0.00 0.00 0.06 67 1012.2
20260502162002 55 113 1.0 0.0 0.00 0.00 0.06 62 1011.9
20260502161501 55 90 3.0 0.0 0.00 0.00 0.06 61 1012.2
20260502161001 52 23 1.0 0.0 0.00 0.00 0.06 67 1012.2
20260502160501 51 248 3.0 0.0 0.00 0.00 0.06 71 1012.2
20260502152001 46 113 1.0 0.0 0.01 0.00 0.06 89 1012.5
20260502151502 44 135 0.0 0.0 0.01 0.00 0.06 89 1012.5
20260502151002 44 23 3.0 0.0 0.02 0.00 0.06 90 1012.9
20260502130502 39 338 2.0 0.0 0.03 0.00 0.03 91 1013.2
20260502122502 38 0 0.0 0.0 0.01 0.00 0.01 91 1013.2
20260502121502 38 315 2.0 0.0 0.00 0.00 0.00 90 1012.9
20260502121002 38 338 3.0 0.0 0.00 0.00 0.00 91 1012.9
20260502120502 38 338 1.0 0.0 0.00 0.00 0.00 91 1013.2
20260502115502 38 338 2.0 0.0 0.00 0.00 0.00 91 1012.9
20260502114501 38 0 2.0 0.0 0.00 0.00 0.00 91 1012.9
20260502114002 38 293 0.0 0.0 0.00 0.00 0.00 92 1012.9
20260502113002 38 338 2.0 0.0 0.00 0.00 0.00 92 1012.9
20260502112501 38 315 1.0 0.0 0.00 0.00 0.00 93 1012.9
20260502112002 38 293 1.0 0.0 0.00 0.00 0.00 93 1012.9
20260502111502 38 315 1.0 0.0 0.00 0.00 0.00 93 1012.5
20260502111002 38 293 1.0 0.0 0.00 0.00 0.00 93 1012.5
20260502110002 38 0 2.0 0.0 0.00 0.00 0.00 90 1012.5
20260502105002 38 315 0.0 0.0 0.00 0.00 0.00 90 1012.5
20260502104002 37 90 3.0 0.0 0.00 0.00 0.00 90 1012.5
20260502103502 37 23 2.0 0.0 0.00 0.00 0.00 91 1012.5
20260502103002 38 270 0.0 0.0 0.00 0.00 0.00 92 1012.5
20260502102502 38 0 2.0 0.0 0.00 0.00 0.00 92 1012.5
20260502102001 38 23 0.0 0.0 0.00 0.00 0.00 91 1012.5
20260502101502 38 45 0.0 0.0 0.00 0.00 0.00 91 1012.5
20260502101001 38 23 2.0 0.0 0.00 0.00 0.00 91 1012.2
20260502100502 38 45 2.0 0.0 0.00 0.00 0.00 90 1012.5
20260502091501 39 293 1.0 0.0 0.00 0.00 0.00 87 1012.2
20260502091001 38 23 2.0 0.0 0.00 0.00 0.00 87 1012.2
20260502090502 38 338 3.0 0.0 0.00 0.00 0.00 89 1012.2
20260502071501 40 23 2.0 0.0 0.00 0.00 0.00 83 1011.9
20260502070501 40 248 2.0 0.0 0.00 0.00 0.00 84 1011.5
20260502070001 40 338 3.0 0.0 0.00 0.00 0.00 85 1011.5
20260502065502 40 315 4.0 0.0 0.00 0.00 0.00 86 1011.9
20260502064503 41 315 4.0 0.0 0.00 0.00 0.00 84 1011.5
20260502064001 41 293 0.0 0.0 0.00 0.00 0.00 84 1011.5
20260502063501 41 113 1.0 0.0 0.00 0.00 0.00 84 1011.5
20260502063002 41 135 1.0 0.0 0.00 0.00 0.00 84 1011.5
20260502062501 41 45 1.0 0.0 0.00 0.00 0.00 84 1011.5
20260502062007 41 68 0.0 0.0 0.00 0.00 0.00 84 1011.5
20260502061501 41 315 1.0 0.0 0.00 0.00 0.00 83 1011.5
20260502061001 41 338 0.0 0.0 0.00 0.00 0.00 83 1011.5
20260502060502 41 68 0.0 0.0 0.00 0.00 0.00 83 1011.5
20260502060002 41 315 2.0 0.0 0.00 0.00 0.00 83 1011.5
20260502055502 41 45 0.0 0.0 0.00 0.00 0.00 84 1011.5
20260502055002 41 293 0.0 0.0 0.00 0.00 0.00 84 1011.5
20260502054502 41 315 2.0 0.0 0.00 0.00 0.00 84 1011.5
20260502054001 41 338 2.0 0.0 0.00 0.00 0.00 84 1011.5
20260502053501 41 338 2.0 0.0 0.00 0.00 0.00 84 1011.5
20260502053002 40 293 1.0 0.0 0.00 0.00 0.00 84 1011.5
20260502052501 40 315 1.0 0.0 0.00 0.00 0.00 85 1011.5
20260502052002 40 338 0.0 0.0 0.00 0.00 0.00 86 1011.5
20260502051002 40 315 0.0 0.0 0.00 0.00 0.00 87 1011.5
20260502050502 40 0 0.0 0.0 0.00 0.00 0.00 87 1011.5
20260502050001 39 68 0.0 0.0 0.00 0.00 0.00 88 1011.5
20260502045001 39 293 0.0 0.0 0.00 0.00 0.00 91 1011.5
20260502044502 39 293 0.0 0.0 0.00 0.00 0.00 92 1011.2
20260502044002 39 180 0.0 0.0 0.00 0.00 0.00 92 1011.5
20260502043002 39 90 0.0 0.0 0.00 0.00 0.00 92 1011.2
20260502042502 39 158 0.0 0.0 0.00 0.00 0.00 92 1011.2
20260502042001 39 180 0.0 0.0 0.00 0.00 0.00 92 1011.5
20260502041502 39 180 0.0 0.0 0.00 0.00 0.00 92 1011.5
20260502041002 39 158 0.0 0.0 0.00 0.00 0.00 91 1011.5
20260502040501 39 135 0.0 0.0 0.00 0.00 0.00 89 1011.2
20260502040001 38 180 0.0 0.0 0.00 0.00 0.00 90 1011.2
20260502035001 38 113 0.0 0.0 0.00 0.00 0.00 90 1011.2
20260502034502 38 23 1.0 0.0 0.00 0.00 0.00 90 1011.2
20260502034002 39 338 2.0 0.0 0.00 0.00 0.00 90 1011.2
20260502033502 39 113 0.0 0.0 0.00 0.00 0.00 89 1011.2
20260502033002 39 135 0.0 0.0 0.00 0.00 0.00 88 1011.2
20260502032501 39 180 0.0 0.0 0.00 0.00 0.00 89 1011.2
20260502031502 39 158 0.0 0.0 0.00 0.00 0.00 88 1011.2
20260502031002 39 135 0.0 0.0 0.00 0.00 0.00 88 1011.2
20260502030502 40 113 0.0 0.0 0.00 0.00 0.00 87 1011.5
20260502030001 40 180 0.0 0.0 0.00 0.00 0.00 88 1011.5
20260502025501 40 158 0.0 0.0 0.00 0.00 0.00 88 1011.5
20260502025001 40 158 0.0 0.0 0.00 0.00 0.00 87 1011.5
20260502024502 40 113 0.0 0.0 0.00 0.00 0.00 86 1011.5
20260502024002 40 90 0.0 0.0 0.00 0.00 0.00 85 1011.5
20260502023502 40 135 0.0 0.0 0.00 0.00 0.00 84 1011.5
20260502023001 41 135 0.0 0.0 0.00 0.00 0.00 83 1011.5
20260502022501 41 135 0.0 0.0 0.00 0.00 0.00 83 1011.5
20260502022002 41 135 0.0 0.0 0.00 0.00 0.00 82 1011.5
20260502021502 41 113 0.0 0.0 0.00 0.00 0.00 82 1011.5
20260502020502 41 135 0.0 0.0 0.00 0.00 0.00 80 1011.5
20260502020002 42 135 0.0 0.0 0.00 0.00 0.00 78 1011.5
20260502015502 42 158 0.0 0.0 0.00 0.00 0.00 79 1011.5
20260502015002 43 158 0.0 0.0 0.00 0.00 0.00 76 1011.5
20260502014501 43 158 1.0 0.0 0.00 0.00 0.00 77 1011.5
20260502014001 43 180 1.0 0.0 0.00 0.00 0.00 77 1011.5
20260502013002 43 158 0.0 0.0 0.00 0.00 0.00 77 1011.5
20260502012507 43 180 0.0 0.0 0.00 0.00 0.00 75 1011.2
20260502012002 43 135 0.0 0.0 0.00 0.00 0.00 72 1011.2
20260502011002 44 113 0.0 0.0 0.00 0.00 0.00 71 1011.5
20260502010501 44 135 0.0 0.0 0.00 0.00 0.00 64 1011.5
20260502010001 45 180 0.0 0.0 0.00 0.00 0.00 62 1011.2
20260502005501 45 135 0.0 0.0 0.00 0.00 0.00 62 1011.2
20260502005001 45 158 0.0 0.0 0.00 0.00 0.00 60 1011.2
20260502004502 46 158 0.0 0.0 0.00 0.00 0.00 60 1011.2
20260502004001 46 180 0.0 0.0 0.00 0.00 0.00 60 1011.2
20260502003501 47 180 0.0 0.0 0.00 0.00 0.00 57 1011.2
20260502003001 47 180 0.0 0.0 0.00 0.00 0.00 56 1011.2
20260502002502 47 270 0.0 0.0 0.00 0.00 0.00 56 1011.2
20260502002002 48 270 0.0 0.0 0.00 0.00 0.00 55 1011.2
20260502001002 49 270 0.0 0.0 0.00 0.00 0.00 54 1010.8
20260502000502 49 225 1.0 0.0 0.00 0.00 0.00 53 1010.8
20260502000002 49 225 0.0 0.0 0.00 0.00 0.00 52 1010.8
20260501235501 50 270 2.0 0.0 0.00 0.00 0.00 51 1010.8
20260501234502 50 180 1.0 0.0 0.00 0.00 0.00 50 1010.8
20260501234001 50 293 1.0 0.0 0.00 0.00 0.00 52 1010.8
20260501233502 50 45 2.0 0.0 0.00 0.00 0.00 51 1010.8
20260501232502 50 203 0.0 0.0 0.00 0.00 0.00 50 1010.5
20260501231502 50 203 0.0 0.0 0.00 0.00 0.00 50 1010.5
20260501230506 50 135 0.0 0.0 0.00 0.00 0.00 49 1010.5
20260501230001 50 338 1.0 0.0 0.00 0.00 0.00 49 1010.5
20260501225502 51 0 0.0 0.0 0.00 0.00 0.00 50 1010.2
20260501225002 51 270 0.0 0.0 0.00 0.00 0.00 50 1010.5
20260501224502 51 113 0.0 0.0 0.00 0.00 0.00 51 1010.2
20260501224002 51 0 2.0 0.0 0.00 0.00 0.00 50 1010.2
20260501223502 51 0 2.0 0.0 0.00 0.00 0.00 48 1010.2
20260501223002 51 45 2.0 0.0 0.00 0.00 0.00 50 1010.2
20260501222502 51 23 3.0 0.0 0.00 0.00 0.00 49 1010.2
20260501222001 52 338 3.0 0.0 0.00 0.00 0.00 49 1010.2
20260501221502 52 90 0.0 0.0 0.00 0.00 0.00 48 1010.2
20260501221002 52 293 1.0 0.0 0.00 0.00 0.00 49 1010.2
20260501220002 52 315 1.0 0.0 0.00 0.00 0.00 48 1010.2
20260501215501 53 0 4.0 0.0 0.00 0.00 0.00 47 1010.2
20260501215001 53 315 3.0 0.0 0.00 0.00 0.00 45 1010.2
20260501214002 54 338 2.0 0.0 0.00 0.00 0.00 45 1010.2
20260501213501 54 23 2.0 0.0 0.00 0.00 0.00 45 1010.2
20260501213002 54 315 2.0 0.0 0.00 0.00 0.00 46 1010.2
20260501212002 53 315 3.0 0.0 0.00 0.00 0.00 47 1010.2
20260501211501 53 315 4.0 0.0 0.00 0.00 0.00 46 1010.2
20260501211001 53 45 6.0 0.0 0.00 0.00 0.00 46 1010.2
20260501210001 53 338 7.0 0.0 0.00 0.00 0.00 46 1010.2
20260501205502 53 293 6.0 0.0 0.00 0.00 0.00 44 1010.2
20260501205006 53 248 3.0 0.0 0.00 0.00 0.00 44 1010.2
20260501204502 54 293 7.0 0.0 0.00 0.00 0.00 44 1010.2
20260501204002 54 248 2.0 0.0 0.00 0.00 0.00 44 1010.2
20260501203502 53 248 4.0 0.0 0.00 0.00 0.00 44 1010.2
20260501203001 54 338 5.0 0.0 0.00 0.00 0.00 43 1010.2
20260501202501 55 293 8.0 0.0 0.00 0.00 0.00 42 1010.2
20260501202001 55 0 5.0 0.0 0.00 0.00 0.00 43 1010.2
20260501201002 54 248 4.0 0.0 0.00 0.00 0.00 44 1010.2
20260501200502 54 225 2.0 0.0 0.00 0.00 0.00 43 1010.2
20260501200002 54 270 4.0 0.0 0.00 0.00 0.00 43 1010.2
20260501195502 55 225 6.0 0.0 0.00 0.00 0.00 41 1010.2